GW1490 Weather Reports


time (UTC)temp
C
wind
direction
speed
KPH
gust
KPH
rain 1hr
cm
rain 24hr
cm
rain mn
cm
humidity
%
barometer
mb
20260906115421 21 244 0.0 0.0 0.00 0.00 0.00 99 995.9
20260906114947 21 249 0.0 0.0 0.00 0.00 0.00 99 996.2
20260906114532 21 245 0.0 0.0 0.00 0.00 0.00 99 996.2
20260906114117 21 258 0.0 0.0 0.00 0.00 0.00 99 995.9
20260906113615 21 249 0.0 0.0 0.00 0.00 0.00 99 996.2
20260906112655 21 266 0.0 0.0 0.00 0.00 0.00 99 995.5
20260906111739 21 271 0.0 0.0 0.00 0.00 0.00 99 995.5
20260906111323 21 280 0.0 0.0 0.00 0.00 0.00 99 995.5
20260906110906 21 269 0.0 0.0 0.00 0.00 0.00 99 995.5
20260906110435 21 274 0.0 0.0 0.00 0.00 0.00 99 995.5
20260906110021 21 330 0.0 0.0 0.00 0.00 0.00 99 995.2
20260906105120 21 272 0.0 0.0 0.00 0.00 0.00 99 995.2
20260906104650 21 231 0.0 0.0 0.00 0.00 0.00 99 995.2
20260906104232 21 233 0.0 0.0 0.00 0.00 0.00 99 995.2
20260906103815 21 233 0.0 0.0 0.00 0.00 0.00 99 995.2
20260906103359 21 233 0.0 0.0 0.00 0.00 0.00 99 994.9
20260906102442 21 243 0.0 0.0 0.00 0.00 0.00 99 994.5
20260906102010 21 232 0.0 0.0 0.00 0.00 0.00 99 994.5
20260906101125 21 254 0.0 0.0 0.00 0.00 0.00 99 994.5
20260906100223 21 242 0.0 0.0 0.00 0.00 0.00 99 994.9
20260906095751 21 247 0.0 0.0 0.00 0.00 0.00 99 994.5
20260906095321 21 234 0.0 0.0 0.00 0.00 0.00 99 994.9
20260906094902 21 241 0.0 0.0 0.00 0.00 0.00 99 994.9
20260906093946 21 246 0.0 0.0 0.00 0.00 0.00 99 994.9
20260906093529 21 256 0.0 0.0 0.00 0.00 0.00 99 994.9
20260906093114 21 239 0.0 0.0 0.00 0.00 0.00 99 994.5
20260906092656 21 242 0.0 0.0 0.00 0.00 0.00 99 994.5
20260906091340 21 225 0.0 0.0 0.00 0.00 0.00 99 994.5
20260906090908 21 234 0.0 0.0 0.00 0.00 0.00 99 994.9
20260906090002 21 243 0.0 0.0 0.00 0.00 0.00 99 994.5
20260906085530 21 240 0.0 0.0 0.00 0.00 0.00 99 994.5
20260906085113 21 254 0.0 0.0 0.00 0.00 0.00 99 994.5
20260906084642 21 233 0.0 0.0 0.00 0.00 0.00 99 994.5
20260906084212 21 239 0.0 0.0 0.00 0.00 0.00 99 994.9
20260906083739 21 247 0.0 0.0 0.00 0.00 0.00 99 994.5
20260906083323 21 238 0.0 0.0 0.00 0.00 0.00 99 994.5
20260906082904 21 244 0.0 0.0 0.00 0.00 0.00 99 994.5
20260906082433 21 241 0.0 0.0 0.00 0.00 0.00 99 994.5
20260906082002 21 233 0.0 0.0 0.00 0.00 0.00 99 994.5
20260906081515 21 233 0.0 0.0 0.00 0.00 0.00 99 994.5
20260906081044 21 243 0.0 0.0 0.00 0.00 0.00 99 994.5
20260906080614 21 231 0.0 0.0 0.00 0.00 0.00 99 994.5
20260906080144 21 230 0.0 0.0 0.00 0.00 0.00 99 994.9
20260906075726 21 231 0.0 0.0 0.00 0.00 0.00 99 994.9
20260906074837 21 240 0.0 0.0 0.00 0.00 0.00 99 994.9
20260906074422 21 247 0.0 0.0 0.00 0.00 0.00 99 994.5
20260906074004 22 249 0.0 0.0 0.00 0.00 0.00 99 994.9
20260906073533 22 229 0.0 0.0 0.00 0.00 0.00 99 994.5
20260906073116 22 230 0.0 0.0 0.00 0.00 0.00 99 994.9
20260906072227 22 238 0.0 0.0 0.00 0.00 0.00 99 994.5
20260906071756 22 273 0.0 0.0 0.00 0.00 0.00 99 994.5
20260906071340 22 231 0.0 0.0 0.00 0.00 0.00 99 994.5
20260906070422 22 231 0.0 0.0 0.00 0.00 0.00 99 994.2
20260906065518 22 235 0.0 0.0 0.00 0.00 0.00 99 994.5
20260906064630 22 229 0.0 0.0 0.00 0.00 0.00 99 994.5
20260906063725 22 229 0.0 0.0 0.00 0.00 0.00 99 994.5
20260906063307 22 229 0.0 0.0 0.00 0.00 0.00 99 994.5
20260906062851 22 230 0.0 0.0 0.00 0.00 0.00 99 994.5
20260906062436 22 230 0.0 0.0 0.00 0.00 0.00 99 994.5
20260906062002 22 249 0.0 0.0 0.00 0.00 0.00 99 994.5
20260906061531 22 239 0.0 0.0 0.00 0.00 0.00 99 994.5
20260906061114 22 232 0.0 0.0 0.00 0.00 0.00 99 994.5
20260906060657 22 244 0.0 0.0 0.00 0.00 0.00 99 994.5
20260906060242 22 238 0.0 0.0 0.00 0.00 0.00 99 994.5
20260906055825 22 246 0.0 0.0 0.00 0.00 0.00 99 994.5
20260906055410 22 233 0.0 0.0 0.00 0.00 0.00 99 994.5
20260906054954 22 242 0.0 0.0 0.00 0.00 0.00 99 994.5
20260906054053 22 253 0.0 0.0 0.00 0.00 0.00 99 994.5
20260906053639 22 235 0.0 0.0 0.00 0.00 0.00 99 994.5
20260906053208 22 230 0.0 0.0 0.00 0.00 0.00 99 994.5
20260906052737 22 228 0.0 0.0 0.00 0.00 0.00 99 994.9
20260906052306 22 230 0.0 0.0 0.00 0.00 0.00 99 994.9
20260906051834 22 230 0.0 0.0 0.00 0.00 0.00 99 994.5
20260906050918 22 229 0.0 0.0 0.00 0.00 0.00 99 994.5
20260906050503 22 230 0.0 0.0 0.00 0.00 0.00 99 994.9
20260906050033 22 233 0.0 0.0 0.00 0.00 0.00 99 994.9
20260906045616 22 230 0.0 0.0 0.00 0.00 0.00 99 994.5
20260906045159 22 233 0.0 0.0 0.00 0.00 0.00 99 994.5
20260906044743 22 264 0.0 0.0 0.00 0.00 0.00 99 994.2
20260906044312 22 300 0.0 0.0 0.00 0.00 0.00 99 994.2
20260906043840 22 235 0.0 0.0 0.00 0.00 0.00 99 994.5
20260906043410 22 228 0.0 0.0 0.00 0.00 0.00 99 994.5
20260906042509 22 227 0.0 0.0 0.00 0.00 0.00 99 994.2
20260906042054 22 223 0.0 0.0 0.00 0.00 0.00 99 994.2
20260906041622 22 226 0.0 0.0 0.00 0.00 0.00 99 994.2
20260906041136 22 226 0.0 0.0 0.00 0.00 0.00 99 994.2
20260906040719 22 228 0.0 0.0 0.00 0.00 0.00 99 994.2
20260906040302 22 232 0.0 0.0 0.00 0.00 0.00 99 994.2
20260906035832 22 232 0.0 0.0 0.00 0.00 0.00 99 994.2
20260906035415 22 232 0.0 0.0 0.00 0.00 0.00 99 994.2
20260906034958 22 228 0.0 0.0 0.00 0.00 0.00 99 994.2
20260906034545 22 227 0.0 0.0 0.00 0.00 0.00 99 994.2
20260906033610 22 228 0.0 0.0 0.00 0.00 0.00 99 994.5
20260906033156 22 230 0.0 0.0 0.00 0.00 0.00 99 994.5
20260906032721 22 230 0.0 0.0 0.00 0.00 0.00 99 994.5
20260906032250 22 229 0.0 0.0 0.00 0.00 0.00 99 994.5
20260906031348 23 211 0.0 0.0 0.00 0.00 0.00 99 994.9
20260906030444 22 229 0.0 0.0 0.00 0.00 0.00 99 994.5
20260906030027 23 228 0.0 0.0 0.00 0.00 0.00 99 994.5
20260906025556 23 240 0.0 0.0 0.00 0.00 0.00 99 994.9
20260906025123 23 231 0.0 0.0 0.00 0.00 0.00 99 994.9
20260906024650 23 228 0.0 0.0 0.00 0.00 0.00 99 994.9
20260906024219 23 224 0.0 0.0 0.00 0.00 0.00 99 994.9
20260906023746 23 224 0.0 0.0 0.00 0.00 0.00 99 995.2
20260906022844 23 230 0.0 0.0 0.00 0.00 0.00 99 994.9
20260906022412 23 229 0.0 0.0 0.00 0.00 0.00 99 994.9
20260906021956 23 231 0.0 0.0 0.00 0.00 0.00 99 994.9
20260906021526 23 231 0.0 0.0 0.00 0.00 0.00 99 995.2
20260906021109 23 230 0.0 0.0 0.00 0.00 0.00 99 994.5
20260906020621 23 234 0.0 0.0 0.00 0.00 0.00 99 994.5
20260906020150 23 229 0.0 0.0 0.00 0.00 0.00 99 994.5
20260906015305 23 258 0.0 0.0 0.00 0.00 0.00 99 994.5
20260906014829 23 234 0.0 0.0 0.00 0.00 0.00 99 994.5
20260906013941 23 227 0.0 0.0 0.00 0.00 0.00 99 994.5
20260906013524 23 227 0.0 0.0 0.00 0.00 0.00 99 994.5
20260906013051 23 236 0.0 0.0 0.00 0.00 0.00 99 994.2
20260906011731 23 229 0.0 0.0 0.00 0.00 0.00 99 993.5
20260906011245 23 230 0.0 0.0 0.00 0.00 0.00 99 993.9
20260906010341 24 231 0.0 0.0 0.00 0.00 0.00 99 993.5
20260906005925 24 233 0.0 0.0 0.00 0.00 0.00 99 993.9
20260906005508 24 227 0.0 0.0 0.00 0.00 0.00 99 993.9
20260906005036 24 230 0.0 0.0 0.00 0.00 0.00 99 993.9
20260906004132 24 226 0.0 0.0 0.00 0.00 0.00 99 993.5
20260906003714 24 225 0.0 0.0 0.00 0.00 0.00 99 993.9
20260906003258 24 226 0.0 0.0 0.00 0.00 0.00 99 993.5
20260906002811 25 229 0.0 0.0 0.00 0.00 0.00 99 993.5
20260906002354 25 231 0.0 0.0 0.00 0.00 0.00 98 993.5
20260906001937 25 230 0.0 0.0 0.00 0.00 0.00 98 993.9
20260906001521 25 230 0.0 0.0 0.00 0.00 0.00 97 993.5
20260906001049 25 230 0.0 0.0 0.00 0.00 0.00 97 993.5
20260906000204 25 225 0.0 0.0 0.00 0.00 0.00 96 993.5
20260905235744 25 230 0.0 0.0 0.00 0.00 0.00 95 993.9
20260905235310 26 228 0.0 0.0 0.00 0.00 0.00 95 993.9
20260905234839 26 229 0.0 0.0 0.00 0.00 0.00 94 993.9
20260905234423 26 231 0.0 0.0 0.00 0.00 0.00 93 993.9
20260905234008 26 233 0.0 0.0 0.00 0.00 0.00 93 993.9
20260905233553 26 231 0.0 0.0 0.00 0.00 0.00 91 993.9
20260905232654 27 231 0.0 0.0 0.00 0.00 0.00 88 993.9
20260905232226 27 231 0.0 0.0 0.00 0.00 0.00 87 993.9
20260905231756 27 231 0.0 0.0 0.00 0.00 0.00 86 993.9
20260905230911 28 231 0.0 0.0 0.00 0.00 0.00 86 993.9
20260905230441 27 231 0.0 0.0 0.00 0.00 0.00 85 993.9
20260905230010 28 231 0.0 0.0 0.00 0.00 0.00 85 993.9
20260905225055 28 233 0.0 0.0 0.00 0.00 0.00 84 993.5
20260905224638 28 233 0.0 0.0 0.00 0.00 0.00 84 993.9
20260905224220 28 240 0.0 0.0 0.00 0.00 0.00 83 993.9
20260905223802 28 243 0.0 0.0 0.00 0.00 0.00 84 993.9
20260905223333 28 232 0.0 0.0 0.00 0.00 0.00 84 993.9
20260905222917 28 232 0.0 0.0 0.00 0.00 0.00 85 993.9
20260905222503 28 232 0.0 0.0 0.00 0.00 0.00 84 993.9
20260905222047 28 233 0.0 0.0 0.00 0.00 0.00 85 993.9
20260905221632 28 233 0.0 0.0 0.00 0.00 0.00 84 993.9
20260905220730 28 232 0.0 0.0 0.00 0.00 0.00 83 993.9
20260905215838 28 268 0.0 0.0 0.00 0.00 0.00 81 993.9
20260905214951 28 243 0.0 0.0 0.00 0.00 0.00 81 993.9
20260905214521 28 243 0.0 0.0 0.00 0.00 0.00 80 993.9
20260905214105 28 234 0.0 0.0 0.00 0.00 0.00 81 993.9
20260905213636 28 234 0.0 0.0 0.00 0.00 0.00 80 993.5
20260905212252 28 232 0.0 0.0 0.00 0.00 0.00 79 993.5
20260905211407 28 232 0.0 0.0 0.00 0.00 0.00 79 993.9
20260905210950 28 246 0.0 0.0 0.00 0.00 0.00 79 993.5
20260905210536 28 232 0.0 0.0 0.00 0.00 0.00 78 993.5
20260905210105 28 234 0.0 0.0 0.00 0.00 0.00 78 993.5
20260905205617 28 214 0.0 0.0 0.00 0.00 0.00 79 993.5
20260905204719 28 229 0.0 0.0 0.00 0.00 0.00 79 993.5
20260905204301 28 228 0.0 0.0 0.00 0.00 0.00 78 993.5
20260905203845 28 233 0.0 0.0 0.00 0.00 0.00 77 993.5
20260905203430 28 232 0.0 0.0 0.00 0.00 0.00 76 993.9
20260905203015 29 232 0.0 0.0 0.00 0.00 0.00 76 993.9
20260905202601 28 213 0.0 0.0 0.00 0.00 0.00 75 993.9
20260905202146 28 219 0.0 0.0 0.00 0.00 0.00 76 993.5
20260905201732 28 237 0.0 0.0 0.00 0.00 0.00 77 993.9
20260905201316 28 233 0.0 0.0 0.00 0.00 0.00 78 993.9
20260905200846 28 231 0.0 0.0 0.00 0.00 0.00 78 994.2
20260905200401 28 233 0.0 0.0 0.00 0.00 0.00 78 994.2
20260905195946 28 227 0.0 1.6 0.00 0.00 0.00 78 994.2
20260905195516 28 233 0.0 0.0 0.00 0.00 0.00 77 994.5
20260905195100 28 236 0.0 0.0 0.00 0.00 0.00 75 994.5
20260905194155 29 233 0.0 0.0 0.00 0.00 0.00 75 994.5
20260905193708 28 234 0.0 0.0 0.00 0.00 0.00 77 994.5
20260905193252 28 232 0.0 0.0 0.00 0.00 0.00 76 994.5
20260905191933 28 234 0.0 0.0 0.00 0.00 0.00 76 994.5
20260905191049 28 234 0.0 0.0 0.00 0.00 0.00 79 994.5
20260905190617 28 233 0.0 0.0 0.00 0.00 0.00 80 994.9
20260905185730 28 234 0.0 0.0 0.00 0.00 0.00 80 994.9
20260905185314 28 234 0.0 0.0 0.00 0.00 0.00 82 994.9
20260905184843 27 223 0.0 0.0 0.00 0.00 0.00 81 994.9
20260905184429 28 230 0.0 0.0 0.00 0.00 0.00 83 994.9
20260905183958 27 227 0.0 0.0 0.00 0.00 0.00 83 995.2
20260905183527 28 232 0.0 0.0 0.00 0.00 0.00 82 995.2
20260905183110 27 230 0.0 0.0 0.00 0.00 0.00 83 995.2
20260905182652 27 228 0.0 0.0 0.00 0.00 0.00 84 995.2
20260905182223 27 231 0.0 0.0 0.00 0.00 0.00 83 995.2
20260905181805 27 239 0.0 0.0 0.00 0.00 0.00 84 995.2
20260905180914 27 226 0.0 0.0 0.00 0.00 0.00 84 995.2
20260905180012 27 236 0.0 0.0 0.00 0.00 0.00 83 995.2
20260905175557 27 204 0.0 3.2 0.00 0.00 0.00 82 995.5
20260905175143 27 223 0.0 0.0 0.00 0.00 0.00 85 995.5
20260905174726 26 230 0.0 0.0 0.00 0.00 0.00 83 995.5
20260905174257 27 232 0.0 0.0 0.00 0.00 0.00 84 995.5
20260905173842 27 232 0.0 0.0 0.00 0.00 0.00 84 995.5
20260905172955 26 234 0.0 0.0 0.00 0.00 0.00 86 995.5
20260905172539 26 203 0.0 1.6 0.00 0.00 0.00 86 995.9
20260905172109 26 210 0.0 0.0 0.00 0.00 0.00 86 995.9
20260905171651 26 236 0.0 0.0 0.00 0.00 0.00 86 995.9
20260905171238 26 236 0.0 0.0 0.00 0.00 0.00 86 996.2
20260905170805 26 272 0.0 0.0 0.00 0.00 0.00 87 995.9
20260905170335 26 200 0.0 0.0 0.00 0.00 0.00 88 996.2
20260905165918 25 231 0.0 0.0 0.00 0.00 0.00 88 996.2
20260905165501 26 232 0.0 0.0 0.00 0.00 0.00 88 996.2
20260905165045 25 222 0.0 0.0 0.00 0.00 0.00 88 996.2
20260905164629 25 185 0.0 0.0 0.00 0.00 0.00 88 996.6
20260905164214 26 189 0.0 0.0 0.00 0.00 0.00 88 996.2
20260905163742 25 230 0.0 0.0 0.00 0.00 0.00 88 996.2
20260905163312 25 172 0.0 0.0 0.00 0.00 0.00 89 996.2
20260905162840 25 232 0.0 0.0 0.00 0.00 0.00 90 996.2
20260905161951 25 236 0.0 0.0 0.00 0.00 0.00 88 996.6
20260905161536 25 237 0.0 0.0 0.00 0.00 0.00 88 996.6
20260905160649 25 220 0.0 0.0 0.00 0.00 0.00 90 996.2
20260905155332 24 226 0.0 0.0 0.00 0.00 0.00 93 996.2
20260905154847 24 215 0.0 0.0 0.00 0.00 0.00 94 996.6
20260905154417 24 241 0.0 0.0 0.00 0.00 0.00 95 996.6
20260905153527 24 221 0.0 0.0 0.00 0.00 0.00 96 996.2
20260905153111 24 229 0.0 0.0 0.00 0.00 0.00 96 995.9
20260905152653 24 229 0.0 0.0 0.00 0.00 0.00 96 995.9
20260905152236 23 223 0.0 4.8 0.00 0.00 0.00 96 995.5
20260905151347 23 204 0.0 0.0 0.00 0.00 0.00 97 995.5
20260905150931 23 233 0.0 0.0 0.00 0.00 0.00 97 995.2
20260905150513 23 225 0.0 0.0 0.00 0.00 0.00 97 995.9
20260905150057 23 204 0.0 3.2 0.00 0.00 0.00 97 995.9
20260905145641 23 222 0.0 0.0 0.00 0.00 0.00 98 996.2
20260905145225 23 219 0.0 0.0 0.00 0.00 0.00 98 996.2
20260905144808 23 224 0.0 0.0 0.00 0.00 0.00 98 996.2
20260905144352 23 181 1.6 1.6 0.00 0.00 0.00 98 995.5
20260905143935 23 225 0.0 0.0 0.00 0.00 0.00 98 995.9
20260905143504 23 223 0.0 0.0 0.00 0.00 0.00 98 995.9
20260905143032 23 206 0.0 3.2 0.00 0.00 0.00 98 995.5
20260905142615 23 189 0.0 4.8 0.00 0.00 0.00 98 995.2
20260905142159 23 151 0.0 4.8 0.00 0.00 0.00 98 995.5
20260905141740 23 184 0.0 0.0 0.00 0.00 0.00 98 995.9
20260905141325 23 211 0.0 0.0 0.00 0.00 0.00 99 996.2
20260905140838 23 216 0.0 0.0 0.00 0.00 0.00 99 996.2
20260905140422 23 206 0.0 0.0 0.00 0.00 0.00 99 995.9
20260905140005 23 98 0.0 0.0 0.00 0.00 0.00 99 995.9
20260905135547 23 191 0.0 0.0 0.00 0.00 0.00 99 996.2
20260905135130 22 213 0.0 0.0 0.00 0.00 0.00 99 996.6
20260905134658 22 94 0.0 0.0 0.00 0.00 0.00 99 996.2
20260905134242 22 211 0.0 0.0 0.00 0.00 0.00 99 996.9
20260905132919 22 178 0.0 0.0 0.00 0.00 0.00 99 996.6
20260905132448 22 231 0.0 0.0 0.00 0.00 0.00 99 996.9
20260905132017 22 182 0.0 0.0 0.00 0.00 0.00 99 996.9
20260905131546 22 163 0.0 0.0 0.00 0.00 0.00 99 997.2
20260905131129 22 230 0.0 0.0 0.00 0.00 0.00 99 997.2
20260905130713 22 240 0.0 0.0 0.00 0.00 0.00 99 996.9
20260905125822 22 227 0.0 0.0 0.00 0.00 0.00 99 997.6
20260905125404 22 226 0.0 0.0 0.00 0.00 0.00 99 997.2
20260905124933 22 220 0.0 0.0 0.00 0.00 0.00 99 997.2
20260905124501 22 234 0.0 0.0 0.00 0.00 0.00 99 997.2
20260905124046 22 231 0.0 0.0 0.00 0.00 0.00 99 997.2
20260905123616 22 233 0.0 0.0 0.00 0.00 0.00 99 996.9
20260905123200 22 237 0.0 0.0 0.00 0.00 0.00 99 996.9
20260905122743 22 232 0.0 0.0 0.00 0.00 0.00 99 996.9
20260905121838 22 234 0.0 0.0 0.00 0.00 0.00 99 997.2
20260905120507 22 231 0.0 0.0 0.00 0.00 0.00 99 996.9
20260905120050 22 268 0.0 0.0 0.00 0.00 0.00 99 996.9